#timestamp,LO_Frequency,Hit,StdDev 
1655791215.3,286046928.3,Y
1655791235.2,286046983.0,P
1655791255.0,286046980.3,N
1655791255.9,286046980.3,N
1655791275.7,286046973.1,N
1655791295.6,286046970.4,N
1655791315.4,286046965.7,N
1655791335.3,286046956.9,Y
1655791355.1,286046986.0,P
1655791356.0,286046986.0,N
1655791375.8,286046987.4,N
1655791395.7,286046992.4,N
1655791415.5,286046997.0,N
1655791435.3,286047004.6,N
1655791455.2,286047008.0,N
1655791475.0,286047007.0,N
1655791475.9,286047007.0,N
1655791495.8,286047008.2,N
1655791515.6,286047012.4,N
1655791535.4,286047010.2,N
1655791555.3,286047002.4,N
1655791575.1,286046990.7,N
1655791595.8,286046981.2,N
1655791615.7,286046971.6,N
1655791635.5,286046966.3,N
1655791655.4,286046963.3,N
1655791675.2,286046961.3,N
1655791695.0,286046958.8,N
1655791695.9,286046958.8,N
1655791715.8,286046953.9,N
1655791735.6,286046945.6,N
1655791755.4,286046944.1,N
1655791775.3,286046943.4,N
1655791795.1,286046938.6,N
1655791815.9,286046936.8,N
1655791835.7,286046938.3,N
1655791855.5,286046938.2,N
1655791875.4,286046938.4,N
1655791895.2,286046931.3,N
1655791915.0,286046928.8,N
1655791915.9,286046928.8,N
1655791935.8,286046937.4,N
1655791955.6,286046942.0,N
1655791975.5,286046937.9,N
1655791995.3,286046936.0,N
1655792015.1,286046943.1,N
1655792035.9,286046943.5,N
1655792055.7,286046941.2,N
1655792075.6,286046943.2,N
1655792095.4,286046951.1,N
1655792115.2,286046950.5,N
1655792135.1,286046958.0,N
1655792136.0,286046958.0,Y
1655792155.8,286047007.6,P
1655792175.6,286047001.8,N
1655792195.5,286047003.4,N
1655792215.3,286047005.6,N
1655792235.2,286046998.6,N
1655792255.9,286046994.7,N
1655792275.7,286046990.5,N
1655792295.6,286046984.1,N
1655792315.4,286046980.1,N
1655792335.2,286046970.5,N
1655792355.1,286046963.6,N
1655792356.0,286046963.6,N
1655792375.8,286046955.1,N
1655792395.7,286046947.9,N
1655792415.5,286046939.1,N
1655792435.3,286046931.2,Y
1655792455.2,286046950.2,P
1655792475.0,286046947.9,P
1655792475.9,286046947.9,P
1655792495.8,286046942.2,Y
1655792515.6,286046986.8,P
1655792535.4,286046983.6,N
1655792555.3,286046985.4,N
1655792575.1,286046983.6,N
1655792595.8,286046979.2,N
1655792615.7,286046980.2,N
1655792635.5,286046976.4,N
1655792655.4,286046975.5,N
1655792675.2,286046971.1,Y
1655792695.0,286046992.9,P
1655792695.9,286046992.9,N
1655792715.8,286046994.2,N
1655792735.6,286046989.6,N
1655792755.5,286046981.1,Y
1655792775.3,286046985.7,P
1655792795.1,286046980.5,P
1655792815.9,286046977.8,P
1655792835.7,286046982.0,Y
1655792855.5,286046996.8,P
1655792875.4,286047004.8,N
1655792895.2,286047010.7,N
1655792915.1,286047016.8,N
1655792916.0,286047016.8,N
1655792935.8,286047017.7,N
1655792955.6,286047022.0,N
1655792975.5,286047018.0,N
1655792995.3,286047015.4,N
1655793015.1,286047005.5,N
1655793035.9,286046995.9,N
1655793055.7,286046985.5,N
1655793075.6,286046983.6,N
1655793095.4,286046974.5,N
1655793115.2,286046970.8,N
1655793135.1,286046966.4,N
1655793136.0,286046966.4,N
1655793155.8,286046964.0,N
1655793175.7,286046955.6,N
1655793195.5,286046943.6,N
1655793215.4,286046933.5,N
1655793235.2,286046919.8,Y
1655793255.0,286046926.3,P
1655793255.9,286046926.3,N
1655793275.8,286046922.3,N
1655793295.6,286046924.9,N
1655793315.5,286046929.6,N
1655793335.3,286046935.6,N
1655793355.1,286046932.5,Y
1655793375.9,286046991.5,P
1655793395.7,286046987.4,N
1655793415.6,286046988.7,N
1655793435.4,286046990.6,N
1655793455.2,286046994.9,N
1655793475.1,286047005.9,N
1655793476.0,286047005.9,N
1655793495.8,286046998.4,N
1655793515.6,286046996.0,N
1655793535.5,286046995.4,N
1655793555.3,286046994.3,N
1655793575.2,286046988.8,N
1655793595.9,286046985.1,N
1655793615.7,286046979.1,N
1655793635.6,286046972.9,N
1655793655.4,286046970.1,N
1655793675.2,286046970.9,N
1655793695.1,286046970.7,N
1655793696.0,286046970.7,N
1655793715.8,286046969.4,N
1655793735.7,286046981.7,N
1655793755.5,286046989.5,N
1655793775.4,286046986.0,N
1655793795.2,286046982.5,N
1655793815.0,286046981.6,N
1655793815.9,286046981.6,N
1655793835.8,286046974.3,N
1655793855.6,286046968.4,N
1655793875.4,286046960.6,N
1655793895.3,286046950.7,Y
1655793915.1,286046965.1,P
1655793935.9,286046965.9,P
1655793955.7,286046972.7,P
1655793975.5,286046984.2,N
1655793995.4,286046990.3,N
1655794015.2,286046995.2,N
1655794035.0,286046996.7,N
1655794035.9,286046996.7,N
1655794055.8,286046999.6,N
1655794075.6,286046999.2,N
1655794095.5,286046998.2,N
1655794115.3,286047000.2,N
1655794135.1,286047000.9,N
1655794155.9,286046996.2,N
1655794175.7,286046998.4,N
1655794195.5,286046993.9,N
1655794215.4,286046992.7,N
1655794235.2,286046996.2,N
1655794255.1,286046993.7,N
1655794256.0,286046993.7,N
1655794275.8,286046991.2,N
1655794295.6,286046986.2,N
1655794315.5,286046985.2,N
1655794335.3,286046986.4,N
1655794355.1,286046994.0,N
1655794375.9,286046998.1,N
1655794395.7,286047002.5,N
1655794415.6,286046999.4,N
1655794435.4,286046995.3,N
1655794455.2,286046990.3,N
1655794475.1,286046985.3,N
1655794476.0,286046985.3,N
1655794495.8,286046985.1,N
1655794515.6,286046978.2,Y
1655794535.5,286046979.4,P
1655794555.3,286046976.5,P
1655794575.2,286046980.5,N
1655794595.0,286046988.3,N
1655794595.9,286046988.3,N
1655794615.7,286046982.5,N
1655794635.6,286046985.6,N
1655794655.4,286046992.8,N
1655794675.3,286046992.0,N
1655794695.1,286046988.9,N
1655794715.9,286046985.2,N
1655794735.7,286046977.7,Y
1655794755.5,286046987.8,P
1655794775.4,286046981.9,P
1655794795.2,286046969.3,P
